Theta_e
308 308 308 308 308 309 309 310 311 311 311 311 312 311 309 307 306 311 311 314 317 317 319 319 324 326 334 344 348 345 354 358 358 355 354 348 353 349 347 349 348 347 345 342 341
308 308 308 308 308 309 309 310 311 312 312 312 312 312 307 307 314 315 314 315 319 319 316 315 317 323 323 342 350 352 355 355 352 349 349 348 352 350 349 351 350 347 345 342 343
308 308 308 307 308 308 309 310 311 312 314 313 313 313 309 309 325 320 322 318 320 318 317 315 317 322 323 346 350 353 357 355 349 347 348 352 353 347 348 351 349 350 347 344 344
307 307 307 307 307 308 308 309 311 314 314 313 314 312 310 318 331 329 327 316 318 319 316 320 324 322 322 350 351 354 349 350 350 348 351 352 351 352 350 347 347 346 345 345 344
307 307 307 307 307 307 308 309 311 317 316 315 315 310 321 326 328 331 327 322 320 317 317 322 324 322 321 345 349 350 352 349 349 351 349 347 353 352 353 350 347 345 346 344 343
308 308 307 307 307 307 307 309 311 318 317 315 312 319 325 329 328 328 322 319 316 314 318 320 322 320 325 346 347 345 352 350 351 351 350 353 352 351 351 347 349 346 344 343 342
311 310 309 308 308 308 308 309 312 318 318 316 314 322 326 326 326 325 319 316 314 314 317 320 320 319 337 350 342 347 349 347 352 353 352 348 353 353 349 347 351 348 344 343 343
311 311 312 311 310 309 309 310 313 318 318 317 316 324 326 329 328 326 323 321 316 317 318 319 318 318 346 346 347 348 347 347 346 351 351 343 352 351 348 349 351 349 345 345 345
312 311 311 311 311 309 310 311 317 319 318 320 325 326 325 325 323 322 324 323 322 319 318 317 317 320 341 344 346 350 347 351 352 348 353 346 346 349 349 349 348 346 345 344 343
315 314 313 312 311 310 310 313 321 321 323 324 324 323 322 326 321 321 323 323 318 315 314 316 311 314 316 325 340 351 354 352 355 354 350 349 347 346 345 349 349 346 344 344 344
317 317 316 313 312 310 311 316 319 319 327 323 323 323 324 324 321 321 323 318 316 314 314 313 313 315 318 320 324 346 351 352 353 355 353 350 348 345 343 345 348 348 344 343 344
316 317 318 316 313 310 315 317 322 321 322 322 324 325 326 323 320 319 321 321 317 315 314 313 313 313 316 319 328 343 345 352 348 353 350 349 350 347 342 343 347 346 347 345 343
314 315 317 318 313 315 312 317 320 316 320 321 324 326 326 319 319 318 319 318 317 315 314 313 315 315 316 325 346 347 345 351 346 352 351 350 349 347 344 341 343 344 346 346 344
313 313 316 318 313 311 313 317 315 318 320 324 325 325 321 320 322 320 319 317 319 316 314 314 316 316 316 325 344 345 343 347 345 350 347 349 351 348 346 347 343 341 343 347 346
313 312 313 317 316 312 315 315 320 319 328 327 325 322 319 321 321 321 318 319 320 321 320 321 322 324 324 336 339 341 344 340 346 347 350 354 353 346 348 350 347 343 341 344 346
313 313 313 317 316 316 311 315 320 321 329 328 323 322 322 321 320 320 320 319 319 321 319 320 320 322 324 326 334 336 340 327 334 337 341 345 353 345 349 348 343 346 344 342 346
315 313 314 316 316 314 312 317 321 324 324 324 322 321 321 320 320 319 319 318 318 320 320 319 321 321 321 322 320 317 319 321 336 339 339 335 346 337 347 345 346 342 344 342 344
316 313 317 319 317 313 316 317 324 325 327 325 322 321 322 319 318 319 319 318 317 317 318 323 324 320 320 321 320 319 316 319 325 336 334 336 340 340 347 342 342 339 339 341 344
315 314 317 318 316 313 315 319 317 321 324 324 318 320 321 321 320 320 318 318 318 316 321 323 324 323 323 319 319 320 322 320 330 334 337 340 339 339 345 347 343 343 341 341 343
313 316 317 317 315 314 317 319 320 322 323 322 321 320 320 321 322 320 320 322 324 320 319 322 325 323 324 322 321 323 321 324 327 339 341 340 343 344 344 346 345 340 342 341 343
316 315 316 316 314 311 319 316 320 322 323 323 323 320 319 321 322 322 324 325 323 324 322 321 320 323 323 324 324 323 327 329 329 330 336 337 337 337 341 339 341 342 342 342 340
310 312 315 313 312 309 314 317 319 322 320 320 320 317 318 320 323 326 328 325 321 320 325 322 318 323 325 322 320 322 326 326 327 334 334 334 333 337 341 339 342 343 342 341 343
310 311 319 317 315 314 315 319 320 320 320 321 321 320 318 320 324 326 326 324 325 323 322 321 318 319 319 318 318 320 321 323 324 327 337 334 331 337 336 339 342 344 340 336 339
312 318 316 314 313 318 322 322 322 321 320 319 320 320 318 319 320 322 325 324 324 323 333 321 313 316 316 319 319 321 320 326 325 331 331 329 331 340 337 337 337 344 334 331 337
311 317 319 323 322 322 321 322 324 324 322 320 320 319 317 320 322 323 323 323 322 336 315 311 312 315 316 318 321 321 321 320 319 320 328 323 330 332 337 335 336 343 334 332 337
312 320 318 319 320 320 320 322 324 325 323 321 321 320 319 317 319 323 320 321 321 322 319 313 316 320 323 321 321 322 323 325 332 326 332 334 338 338 335 336 338 341 340 335 340
315 315 317 319 320 321 320 325 326 323 323 323 322 320 320 318 318 319 317 317 319 318 319 317 318 319 323 319 320 320 328 329 335 336 334 333 333 340 337 340 338 336 334 333 341
Wind_Speed
14 15 15 16 16 16 16 15 14 13 12 12 10 8 8 10 7 4 5 4 3 8 4 7 5 6 4 3 2 3 3 2 5 8 3 3 5 3 5 10 5 2 6 12 25
15 15 17 17 17 17 17 17 16 15 13 11 9 7 8 9 6 8 5 9 7 6 4 6 4 4 1 3 2 2 3 2 4 5 5 3 3 5 5 11 3 12 14 22 22
15 16 17 17 17 18 19 20 19 17 13 8 6 6 7 6 2 5 4 11 9 5 2 2 4 2 2 4 5 4 1 2 5 5 8 6 4 8 11 7 13 20 19 21 19
16 17 18 17 17 19 20 20 21 15 9 4 3 4 4 1 3 3 2 12 12 6 4 5 3 4 3 5 3 2 4 4 9 11 7 7 5 5 12 4 11 16 22 22 14
18 18 17 17 18 19 20 20 20 12 8 4 2 2 1 1 6 5 6 8 10 7 5 4 2 3 2 1 6 3 4 6 8 8 8 6 5 3 8 17 14 15 16 17 14
19 19 18 19 19 20 20 20 18 10 7 4 2 2 1 1 2 4 7 9 8 10 5 6 3 3 4 6 4 5 8 5 6 8 4 8 6 1 11 16 17 15 12 12 15
20 20 20 20 21 21 21 19 16 7 4 2 1 2 1 6 1 7 6 6 10 11 4 6 3 2 5 8 4 9 6 3 2 3 3 3 2 3 5 11 18 18 16 13 15
21 21 22 23 23 23 21 19 16 5 1 2 1 2 5 1 3 8 8 3 6 9 7 8 7 1 5 8 1 4 5 3 3 4 3 3 2 2 3 7 15 15 15 15 14
23 23 24 25 25 25 21 22 12 3 2 3 1 1 8 5 4 9 11 7 4 7 8 9 2 4 3 6 4 4 2 5 6 5 2 1 4 4 3 2 9 7 12 15 12
26 26 27 26 25 25 23 19 3 3 4 2 1 3 4 2 5 4 9 11 2 3 3 3 5 3 3 4 5 6 4 3 4 2 3 2 2 1 3 7 9 10 11 11 13
27 28 28 26 26 24 22 4 5 3 3 6 5 4 4 2 4 4 6 5 3 6 2 4 4 6 9 7 4 6 4 3 4 6 4 6 4 7 5 3 4 4 11 7 12
27 28 28 26 27 20 10 3 4 4 8 8 6 6 9 3 1 3 4 3 2 3 3 5 5 10 6 7 5 9 6 4 1 5 6 7 7 5 8 5 5 6 7 11 6
28 29 29 27 21 5 11 7 5 18 1 7 5 4 4 9 6 7 8 3 3 2 4 6 7 6 6 4 5 3 7 6 4 4 4 2 6 4 4 4 7 7 4 3 9
29 30 30 30 5 14 10 8 24 1 5 6 3 4 4 4 3 7 13 6 2 7 6 6 5 9 6 6 8 5 8 8 7 5 1 1 3 5 6 8 10 11 9 6 6
31 32 30 24 16 5 5 20 16 4 3 2 3 2 3 7 2 3 7 3 4 4 4 7 3 4 4 6 10 9 15 12 11 3 1 1 2 5 4 3 6 9 10 10 7
34 33 30 11 11 16 11 19 2 5 5 2 5 4 4 3 3 0 4 1 1 0 1 6 3 3 3 4 8 9 9 8 6 4 3 2 3 4 2 3 5 8 13 13 12
37 31 27 18 5 5 15 4 5 3 4 3 6 3 3 4 3 4 5 3 3 3 4 6 2 3 4 3 4 8 7 4 3 1 5 4 4 7 4 7 6 12 16 18 16
39 33 19 20 7 7 2 5 4 5 6 4 1 2 6 7 5 4 4 1 3 4 2 1 7 2 1 6 7 3 8 5 4 3 3 3 3 5 5 6 3 7 9 13 15
38 20 14 7 12 10 5 2 7 6 3 6 5 4 3 5 4 4 6 4 6 7 6 2 4 4 1 3 7 3 2 4 7 3 2 3 6 3 2 3 5 6 8 10 11
30 12 9 5 15 10 4 6 5 4 3 3 2 1 2 3 5 7 7 3 5 7 4 5 2 2 6 4 3 3 5 3 3 4 3 4 4 4 5 4 4 5 5 6 10
9 4 8 9 12 5 4 7 4 5 4 4 2 4 3 1 5 3 4 1 3 2 3 4 3 5 2 4 3 3 2 7 5 3 5 1 5 5 7 2 6 4 6 5 8
6 4 4 12 3 1 3 6 3 3 4 5 4 10 5 3 3 3 4 5 6 4 4 2 5 1 2 4 4 3 4 5 5 3 1 3 5 3 9 2 5 4 5 5 6
3 3 2 5 2 2 5 4 4 2 4 3 4 2 4 5 4 4 2 1 2 4 6 5 3 3 7 6 5 6 3 5 5 3 5 5 5 2 6 6 1 6 2 6 4
3 3 4 4 1 2 3 5 3 3 6 6 7 1 3 5 1 6 4 2 1 4 8 8 3 6 6 5 3 3 3 3 5 3 5 6 4 6 8 8 7 5 5 3 2
1 3 2 3 3 4 3 3 3 6 4 4 4 3 8 6 3 4 3 2 6 5 4 4 4 2 2 3 3 3 2 2 5 5 6 5 9 6 9 8 9 5 3 2 3
1 1 4 3 3 4 1 1 2 3 2 6 5 10 4 7 8 8 8 4 5 2 3 2 2 4 1 3 3 2 6 1 2 4 2 1 3 3 3 3 7 11 3 4 5
2 2 3 3 4 1 2 3 4 3 6 8 8 6 5 11 9 8 9 10 9 9 3 4 6 3 3 3 3 4 3 1 2 3 1 4 3 5 4 8 9 6 4 5 4
Wind_Direction
0 360 359 356 354 354 352 350 346 341 336 334 336 336 325 318 308 280 243 196 147 192 93 126 167 183 226 67 114 155 59 206 157 153 192 173 262 10 23 133 163 143 137 143 157
357 356 353 353 354 354 351 349 343 336 329 326 333 330 326 322 313 252 225 192 172 153 134 154 153 166 288 117 186 141 136 222 166 151 134 101 305 160 116 182 91 103 105 130 148
354 353 350 351 350 349 350 349 345 336 328 323 323 324 325 327 305 251 212 198 187 188 210 150 151 145 186 136 209 96 217 128 103 116 109 118 275 152 166 226 170 150 146 150 158
351 349 347 348 347 346 349 350 349 344 347 349 327 320 322 352 121 243 198 210 212 202 205 137 152 150 236 166 140 112 279 143 128 126 143 156 285 230 180 172 167 151 152 154 166
348 345 345 345 344 346 347 350 352 351 3 10 338 335 105 278 251 217 227 194 191 186 185 163 201 174 37 88 104 75 60 94 122 147 122 115 338 1 79 123 145 154 152 163 168
347 346 345 344 343 345 346 347 350 355 15 27 28 36 357 358 263 210 200 176 179 174 167 190 213 197 76 59 62 121 99 116 114 117 119 159 206 70 160 132 148 159 150 176 176
351 349 347 345 343 342 343 343 344 344 16 52 93 30 333 227 258 200 161 187 189 182 162 218 242 56 119 87 88 118 95 31 144 95 135 141 77 99 0 165 160 166 175 179 194
353 352 350 347 343 341 339 335 331 308 87 114 109 24 251 251 282 215 204 224 208 216 248 267 274 266 82 129 93 47 353 14 136 75 119 150 175 166 225 156 176 180 191 184 180
356 352 349 347 342 337 338 335 328 222 151 103 65 54 281 319 213 242 223 235 233 235 261 270 114 92 81 110 31 15 246 317 347 152 55 134 146 175 123 151 168 162 171 172 180
355 351 347 345 339 334 337 346 36 98 103 46 275 341 275 235 207 192 209 235 172 107 10 72 58 84 63 112 195 195 200 236 260 124 140 89 118 230 185 201 143 161 160 175 180
353 350 346 344 337 331 335 341 355 4 165 214 209 243 271 254 176 209 177 131 82 53 124 358 72 199 195 201 159 175 145 172 212 154 126 197 220 185 221 159 212 160 158 155 179
350 347 344 343 332 326 343 74 140 328 303 235 231 259 264 224 261 300 156 108 101 183 123 22 235 230 167 195 212 180 138 207 234 183 188 171 210 186 177 182 195 229 165 160 157
348 345 341 341 331 344 326 299 329 337 225 300 202 202 203 147 202 221 135 159 166 141 184 170 229 126 155 213 147 162 188 190 181 174 28 334 331 156 200 177 160 223 238 169 174
345 341 338 339 340 333 298 333 331 189 52 280 254 262 125 155 280 188 181 145 158 206 183 224 259 185 157 198 159 218 166 170 136 89 200 337 284 293 159 184 190 190 197 200 189
342 337 332 332 305 284 307 328 342 108 356 175 222 177 121 146 175 253 162 71 206 236 95 267 310 102 140 211 160 226 160 161 110 66 57 298 86 269 118 196 204 217 199 199 192
338 334 326 323 298 281 298 330 21 46 257 292 190 191 147 171 187 88 167 105 195 303 281 241 276 191 213 122 184 103 85 47 55 35 357 250 133 309 355 326 245 198 188 186 185
333 330 315 290 248 299 324 16 39 148 332 237 222 166 184 188 207 160 191 180 174 61 353 326 260 287 142 90 70 74 78 37 10 20 222 126 113 247 265 267 274 196 199 189 179
332 326 309 273 237 252 304 54 198 236 247 315 228 117 178 171 232 180 156 205 213 102 88 103 324 205 237 173 174 130 143 149 173 195 252 142 230 254 207 250 323 182 192 184 180
334 325 295 291 214 192 84 112 211 210 289 330 333 119 268 238 172 143 198 215 203 173 160 152 314 294 14 156 123 185 84 162 103 7 55 273 290 277 204 224 345 130 144 180 189
333 321 286 272 161 140 89 226 225 227 7 4 353 169 147 279 165 164 180 198 161 195 152 205 87 1 300 57 55 125 156 79 21 137 218 291 280 245 253 239 137 58 87 161 180
340 352 338 158 144 57 184 227 261 255 49 4 335 286 244 188 165 190 191 46 149 115 165 119 97 290 19 40 245 9 78 55 105 103 151 172 268 223 242 138 113 176 160 182 171
354 348 57 155 64 27 182 194 245 210 84 274 228 212 213 214 58 93 175 197 144 180 75 53 136 122 196 280 314 164 127 126 116 221 104 135 272 265 252 72 82 271 275 151 115
350 266 258 190 190 246 295 272 234 267 189 244 288 38 29 238 114 140 121 31 159 103 158 188 26 23 353 354 357 56 15 98 101 86 188 138 259 316 301 299 162 184 217 320 115
337 337 320 27 13 115 8 267 257 242 255 195 244 6 217 246 211 169 145 160 312 105 87 91 113 149 182 203 196 319 5 161 120 126 174 220 226 245 259 257 277 190 197 203 59
137 264 218 315 322 337 259 284 327 7 300 222 284 211 205 184 136 154 132 84 31 119 65 100 115 159 156 255 235 237 331 158 178 187 162 243 200 220 217 240 269 293 188 145 184
254 344 348 288 296 299 282 139 31 332 241 284 204 267 238 183 176 189 134 145 181 190 106 20 159 147 150 286 64 359 340 214 67 131 255 188 229 246 206 267 268 256 302 351 15
301 311 120 272 302 355 223 337 318 12 278 229 257 280 248 239 191 185 176 164 160 149 137 115 132 104 223 334 20 358 324 132 27 25 147 195 205 153 243 249 258 287 326 310 20